| time (UTC) | temp F | wind direction | speed knots | gust knots | rain 1hr in | rain 24hr in | rain mn in | humidity % | barometer mb |
| 20260506005130 | 36 | 350 | 0.0 | 0.9 | 0.12 | 0.05 | 0.05 | 96 | 1016.8 |
| 20260506004627 | 38 | 53 | 2.6 | 3.5 | 0.07 | 0.04 | 0.04 | 96 | 1016.5 |
| 20260506004124 | 38 | 245 | 0.9 | 0.9 | 0.00 | 0.03 | 0.03 | 96 | 1016.6 |
| 20260506003620 | 38 | 76 | 4.3 | 6.1 | 0.00 | 0.03 | 0.03 | 96 | 1016.2 |
| 20260506003116 | 38 | 279 | 0.0 | 0.0 | 0.00 | 0.03 | 0.03 | 96 | 1016.5 |
| 20260506002612 | 38 | 331 | 0.0 | 0.9 | 0.00 | 0.03 | 0.03 | 96 | 1016.5 |
| 20260506002108 | 38 | 304 | 0.9 | 0.9 | 0.00 | 0.03 | 0.03 | 96 | 1016.4 |
| 20260506001604 | 38 | 295 | 0.0 | 0.0 | 0.00 | 0.03 | 0.03 | 96 | 1016.5 |
| 20260506001102 | 39 | 282 | 0.0 | 0.0 | 0.00 | 0.03 | 0.03 | 96 | 1016.5 |
| 20260506000600 | 39 | 301 | 0.0 | 0.0 | 0.00 | 0.03 | 0.03 | 96 | 1016.4 |
| 20260506000057 | 39 | 283 | 0.0 | 0.0 | 0.00 | 0.03 | 0.03 | 96 | 1016.4 |
| 20260505235555 | 38 | 282 | 0.0 | 0.0 | 0.00 | 0.03 | 0.03 | 96 | 1016.1 |
| 20260505235051 | 38 | 286 | 0.0 | 0.0 | 0.00 | 0.03 | 0.03 | 96 | 1016.1 |
| 20260505234548 | 38 | 311 | 0.0 | 0.0 | 0.00 | 0.03 | 0.03 | 96 | 1016.1 |
| 20260505234045 | 38 | 312 | 0.0 | 0.0 | 0.00 | 0.03 | 0.03 | 96 | 1016.4 |
| 20260505233543 | 38 | 301 | 0.9 | 0.9 | 0.00 | 0.03 | 0.03 | 96 | 1016.2 |
| 20260505233040 | 38 | 301 | 0.0 | 0.9 | 0.00 | 0.03 | 0.03 | 96 | 1016.4 |
| 20260505232538 | 39 | 301 | 0.9 | 0.9 | 0.00 | 0.03 | 0.03 | 96 | 1016.5 |
| 20260505232035 | 38 | 323 | 0.9 | 1.7 | 0.00 | 0.03 | 0.03 | 96 | 1016.6 |
| 20260505231531 | 38 | 318 | 0.0 | 0.0 | 0.00 | 0.03 | 0.03 | 96 | 1016.8 |
| 20260505231030 | 38 | 310 | 0.9 | 0.9 | 0.00 | 0.03 | 0.03 | 96 | 1016.6 |
| 20260505230527 | 38 | 319 | 0.0 | 0.0 | 0.00 | 0.03 | 0.03 | 96 | 1016.9 |
| 20260505230024 | 38 | 359 | 1.7 | 1.7 | 0.00 | 0.03 | 0.03 | 96 | 1016.8 |
| 20260505225521 | 37 | 110 | 0.0 | 0.0 | 0.00 | 0.03 | 0.03 | 96 | 1016.9 |
| 20260505225017 | 37 | 117 | 2.6 | 3.5 | 0.00 | 0.03 | 0.03 | 96 | 1016.8 |
| 20260505224514 | 38 | 289 | 0.0 | 0.9 | 0.00 | 0.03 | 0.03 | 95 | 1017.0 |
| 20260505224011 | 38 | 332 | 0.9 | 0.9 | 0.00 | 0.03 | 0.03 | 95 | 1017.0 |
| 20260505223508 | 38 | 313 | 0.0 | 0.9 | 0.00 | 0.03 | 0.03 | 95 | 1016.9 |
| 20260505223004 | 38 | 280 | 0.0 | 0.0 | 0.00 | 0.03 | 0.03 | 95 | 1016.9 |
| 20260505222501 | 38 | 208 | 0.9 | 0.9 | 0.00 | 0.03 | 0.03 | 95 | 1017.3 |
| 20260505221956 | 38 | 303 | 0.0 | 0.0 | 0.00 | 0.03 | 0.03 | 95 | 1017.4 |
| 20260505221454 | 39 | 330 | 1.7 | 1.7 | 0.00 | 0.03 | 0.03 | 95 | 1017.3 |
| 20260505220951 | 38 | 263 | 0.0 | 0.0 | 0.00 | 0.03 | 0.03 | 95 | 1017.3 |
| 20260505220448 | 39 | 283 | 0.0 | 0.0 | 0.07 | 0.03 | 0.03 | 95 | 1017.5 |
| 20260505215945 | 38 | 111 | 3.5 | 3.5 | 0.07 | 0.03 | 0.03 | 94 | 1017.4 |
| 20260505215443 | 39 | 219 | 0.9 | 0.9 | 0.00 | 0.02 | 0.02 | 94 | 1017.4 |
| 20260505214941 | 38 | 187 | 0.9 | 0.9 | 0.00 | 0.02 | 0.02 | 94 | 1017.5 |
| 20260505214438 | 38 | 151 | 0.9 | 0.9 | 0.00 | 0.02 | 0.02 | 93 | 1017.8 |
| 20260505213935 | 39 | 152 | 0.9 | 1.7 | 0.00 | 0.02 | 0.02 | 93 | 1017.7 |
| 20260505213433 | 39 | 126 | 1.7 | 1.7 | 0.00 | 0.02 | 0.02 | 93 | 1017.8 |
| 20260505212929 | 37 | 94 | 0.0 | 0.0 | 0.00 | 0.02 | 0.02 | 94 | 1017.9 |
| 20260505212426 | 38 | 267 | 0.0 | 0.0 | 0.00 | 0.02 | 0.02 | 94 | 1018.2 |
| 20260505211922 | 38 | 213 | 0.0 | 0.0 | 0.00 | 0.02 | 0.02 | 94 | 1017.9 |
| 20260505211420 | 38 | 339 | 0.0 | 0.0 | 0.05 | 0.02 | 0.02 | 94 | 1018.2 |
| 20260505210916 | 38 | 83 | 0.9 | 0.9 | 0.05 | 0.02 | 0.02 | 93 | 1018.3 |
| 20260505210423 | 38 | 127 | 1.7 | 1.7 | 0.00 | 0.01 | 0.01 | 92 | 1018.2 |
| 20260505205910 | 38 | 14 | 0.0 | 0.9 | 0.07 | 0.01 | 0.01 | 92 | 1018.5 |
| 20260505205409 | 38 | 65 | 0.9 | 0.9 | 0.07 | 0.01 | 0.01 | 91 | 1018.5 |
| 20260505204905 | 39 | 90 | 0.9 | 1.7 | 0.00 | 0.00 | 0.00 | 89 | 1018.5 |
| 20260505204403 | 40 | 102 | 0.0 | 0.0 | 0.00 | 0.00 | 0.00 | 88 | 1018.6 |
| 20260505203900 | 41 | 255 | 0.9 | 0.9 | 0.00 | 0.00 | 0.00 | 85 | 1018.6 |
| 20260505203356 | 42 | 94 | 2.6 | 3.5 | 0.00 | 0.00 | 0.00 | 80 | 1018.9 |
| 20260505202853 | 42 | 161 | 1.7 | 2.6 | 0.00 | 0.00 | 0.00 | 75 | 1018.6 |
| 20260505202349 | 42 | 227 | 0.9 | 1.7 | 0.00 | 0.00 | 0.00 | 74 | 1018.5 |
| 20260505201846 | 43 | 179 | 2.6 | 2.6 | 0.00 | 0.00 | 0.00 | 70 | 1018.6 |
| 20260505201343 | 46 | 226 | 1.7 | 3.5 | 0.00 | 0.00 | 0.00 | 63 | 1018.5 |
| 20260505200841 | 47 | 232 | 0.9 | 0.9 | 0.00 | 0.00 | 0.00 | 55 | 1018.3 |
| 20260505200338 | 48 | 137 | 1.7 | 3.5 | 0.00 | 0.00 | 0.00 | 52 | 1018.5 |
| 20260505195834 | 50 | 227 | 0.9 | 1.7 | 0.00 | 0.00 | 0.00 | 50 | 1018.2 |
| 20260505195331 | 49 | 154 | 1.7 | 6.1 | 0.00 | 0.00 | 0.00 | 50 | 1018.1 |
| 20260505194828 | 51 | 278 | 0.9 | 1.7 | 0.00 | 0.00 | 0.00 | 48 | 1018.5 |
| 20260505194325 | 50 | 71 | 1.7 | 3.5 | 0.00 | 0.00 | 0.00 | 53 | 1018.3 |
| 20260505193820 | 53 | 81 | 3.5 | 5.2 | 0.00 | 0.00 | 0.00 | 46 | 1018.3 |
| 20260505193319 | 50 | 135 | 4.3 | 7.8 | 0.00 | 0.00 | 0.00 | 47 | 1018.3 |
| 20260505192816 | 50 | 143 | 3.5 | 5.2 | 0.00 | 0.00 | 0.00 | 44 | 1018.6 |
| 20260505192315 | 47 | 25 | 1.7 | 1.7 | 0.00 | 0.00 | 0.00 | 48 | 1018.6 |
| 20260505191812 | 46 | 194 | 1.7 | 1.7 | 0.00 | 0.00 | 0.00 | 50 | 1018.9 |
| 20260505191309 | 46 | 220 | 0.9 | 1.7 | 0.00 | 0.00 | 0.00 | 49 | 1018.7 |
| 20260505190806 | 47 | 285 | 0.9 | 0.9 | 0.00 | 0.00 | 0.00 | 49 | 1018.9 |
| 20260505190302 | 46 | 251 | 1.7 | 2.6 | 0.00 | 0.00 | 0.00 | 50 | 1018.7 |
| 20260505185758 | 46 | 255 | 4.3 | 7.0 | 0.00 | 0.00 | 0.00 | 51 | 1018.3 |
| 20260505185254 | 46 | 252 | 3.5 | 3.5 | 0.00 | 0.00 | 0.00 | 53 | 1018.5 |
| 20260505184750 | 45 | 166 | 2.6 | 3.5 | 0.00 | 0.00 | 0.00 | 57 | 1018.5 |
| 20260505184248 | 46 | 191 | 1.7 | 2.6 | 0.00 | 0.00 | 0.00 | 53 | 1018.2 |
| 20260505183744 | 47 | 223 | 2.6 | 3.5 | 0.00 | 0.00 | 0.00 | 54 | 1018.7 |
| 20260505183242 | 46 | 260 | 1.7 | 3.5 | 0.00 | 0.00 | 0.00 | 54 | 1018.9 |
| 20260505182738 | 48 | 215 | 0.9 | 1.7 | 0.00 | 0.00 | 0.00 | 53 | 1018.6 |
| 20260505182235 | 49 | 215 | 0.9 | 1.7 | 0.00 | 0.00 | 0.00 | 52 | 1018.6 |
| 20260505181731 | 48 | 122 | 0.9 | 1.7 | 0.00 | 0.00 | 0.00 | 54 | 1018.9 |
| 20260505181229 | 47 | 210 | 1.7 | 1.7 | 0.00 | 0.00 | 0.00 | 55 | 1018.7 |
| 20260505180726 | 48 | 185 | 0.9 | 1.7 | 0.00 | 0.00 | 0.00 | 54 | 1019.0 |
| 20260505180222 | 49 | 245 | 0.9 | 0.9 | 0.00 | 0.00 | 0.00 | 51 | 1018.9 |
| 20260505175718 | 50 | 210 | 2.6 | 3.5 | 0.00 | 0.00 | 0.00 | 50 | 1018.7 |
| 20260505175215 | 48 | 233 | 0.9 | 0.9 | 0.00 | 0.00 | 0.00 | 54 | 1019.1 |
| 20260505174712 | 48 | 248 | 0.9 | 1.7 | 0.00 | 0.00 | 0.00 | 51 | 1019.0 |
| 20260505174209 | 47 | 207 | 3.5 | 6.1 | 0.00 | 0.00 | 0.00 | 54 | 1019.0 |
| 20260505173704 | 46 | 216 | 5.2 | 7.8 | 0.00 | 0.00 | 0.00 | 58 | 1019.5 |
| 20260505173201 | 45 | 242 | 0.0 | 0.9 | 0.00 | 0.00 | 0.00 | 59 | 1019.4 |
| 20260505172659 | 46 | 224 | 5.2 | 6.1 | 0.00 | 0.00 | 0.00 | 59 | 1019.4 |
| 20260505172156 | 46 | 205 | 0.9 | 1.7 | 0.00 | 0.00 | 0.00 | 62 | 1019.4 |
| 20260505171655 | 46 | 239 | 0.9 | 1.7 | 0.00 | 0.00 | 0.00 | 60 | 1019.5 |
| 20260505171153 | 45 | 77 | 2.6 | 3.5 | 0.00 | 0.00 | 0.00 | 63 | 1019.5 |
| 20260505170650 | 44 | 67 | 0.9 | 1.7 | 0.00 | 0.00 | 0.00 | 65 | 1019.6 |
| 20260505170146 | 43 | 291 | 0.0 | 0.0 | 0.00 | 0.00 | 0.00 | 66 | 1019.6 |
| 20260505165646 | 45 | 58 | 2.6 | 3.5 | 0.00 | 0.00 | 0.00 | 63 | 1019.6 |
| 20260505165143 | 46 | 235 | 1.7 | 1.7 | 0.00 | 0.00 | 0.00 | 61 | 1019.6 |
| 20260505164638 | 44 | 226 | 0.0 | 0.0 | 0.00 | 0.00 | 0.00 | 67 | 1020.0 |
| 20260505164136 | 42 | 111 | 4.3 | 6.1 | 0.00 | 0.00 | 0.00 | 68 | 1020.2 |
| 20260505163634 | 42 | 146 | 1.7 | 2.6 | 0.00 | 0.00 | 0.00 | 70 | 1020.0 |
| 20260505163132 | 44 | 251 | 0.9 | 0.9 | 0.00 | 0.00 | 0.00 | 68 | 1020.2 |
| 20260505162629 | 43 | 165 | 0.0 | 0.9 | 0.00 | 0.00 | 0.00 | 68 | 1020.0 |
| 20260505162126 | 45 | 245 | 0.9 | 0.9 | 0.00 | 0.00 | 0.00 | 65 | 1019.9 |
| 20260505161623 | 45 | 290 | 0.0 | 0.0 | 0.00 | 0.00 | 0.00 | 64 | 1020.2 |
| 20260505161120 | 45 | 272 | 0.0 | 0.0 | 0.00 | 0.00 | 0.00 | 65 | 1019.8 |
| 20260505160618 | 44 | 248 | 0.0 | 0.9 | 0.00 | 0.00 | 0.00 | 68 | 1019.8 |
| 20260505160115 | 42 | 112 | 2.6 | 2.6 | 0.00 | 0.00 | 0.00 | 70 | 1019.8 |
| 20260505153055 | 43 | 254 | 0.0 | 0.9 | 0.00 | 0.00 | 0.00 | 67 | 1019.9 |
| 20260505152551 | 43 | 216 | 0.9 | 1.7 | 0.00 | 0.00 | 0.00 | 67 | 1019.4 |
| 20260505152047 | 42 | 248 | 0.9 | 1.7 | 0.00 | 0.00 | 0.00 | 68 | 1019.9 |
| 20260505151542 | 43 | 135 | 2.6 | 3.5 | 0.00 | 0.00 | 0.00 | 68 | 1019.5 |
| 20260505151040 | 41 | 321 | 0.0 | 0.0 | 0.00 | 0.00 | 0.00 | 73 | 1019.8 |
| 20260505150536 | 42 | 317 | 0.0 | 0.9 | 0.00 | 0.00 | 0.00 | 72 | 1019.8 |
| 20260505140501 | 36 | 251 | 0.0 | 0.0 | 0.00 | 0.00 | 0.00 | 82 | 1020.3 |
| 20260505124915 | 35 | 291 | 0.0 | 0.0 | 0.00 | 0.00 | 0.00 | 81 | 1019.9 |
| 20260505124412 | 36 | 258 | 0.0 | 0.0 | 0.00 | 0.00 | 0.00 | 80 | 1020.0 |
| 20260505123908 | 36 | 232 | 0.9 | 1.7 | 0.00 | 0.00 | 0.00 | 81 | 1020.2 |
| 20260505123405 | 36 | 233 | 0.0 | 0.9 | 0.00 | 0.00 | 0.00 | 81 | 1020.0 |
| 20260505122900 | 36 | 232 | 0.0 | 0.9 | 0.00 | 0.00 | 0.00 | 81 | 1019.9 |
| 20260505122358 | 36 | 175 | 1.7 | 1.7 | 0.00 | 0.00 | 0.00 | 80 | 1020.0 |
| 20260505121854 | 37 | 294 | 0.0 | 0.0 | 0.00 | 0.00 | 0.00 | 80 | 1020.0 |
| 20260505121351 | 36 | 304 | 0.0 | 0.0 | 0.00 | 0.00 | 0.00 | 81 | 1020.2 |
| 20260505120847 | 36 | 310 | 0.0 | 0.0 | 0.00 | 0.00 | 0.00 | 80 | 1019.9 |
| 20260505120344 | 36 | 311 | 0.0 | 0.0 | 0.00 | 0.00 | 0.00 | 80 | 1019.9 |
| 20260505115842 | 37 | 312 | 0.0 | 0.9 | 0.00 | 0.00 | 0.00 | 80 | 1019.6 |
| 20260505115340 | 36 | 312 | 0.0 | 0.0 | 0.00 | 0.00 | 0.00 | 81 | 1020.0 |
| 20260505114838 | 37 | 312 | 0.0 | 0.9 | 0.00 | 0.00 | 0.00 | 81 | 1019.6 |
| 20260505114334 | 37 | 312 | 0.0 | 0.0 | 0.00 | 0.00 | 0.00 | 81 | 1019.8 |
| 20260505113830 | 36 | 313 | 0.0 | 0.0 | 0.00 | 0.00 | 0.00 | 82 | 1019.9 |
| 20260505113327 | 35 | 310 | 0.0 | 0.9 | 0.00 | 0.00 | 0.00 | 84 | 1019.8 |
| 20260505112823 | 36 | 310 | 0.0 | 0.0 | 0.00 | 0.00 | 0.00 | 83 | 1019.9 |
| 20260505112320 | 36 | 310 | 0.0 | 0.0 | 0.00 | 0.00 | 0.00 | 84 | 1019.6 |
| 20260505111816 | 35 | 310 | 0.9 | 0.9 | 0.00 | 0.00 | 0.00 | 84 | 1019.5 |
| 20260505111311 | 35 | 303 | 0.9 | 0.9 | 0.00 | 0.00 | 0.00 | 85 | 1019.8 |
| 20260505110807 | 35 | 308 | 0.0 | 0.0 | 0.00 | 0.00 | 0.00 | 85 | 1019.8 |
| 20260505110305 | 35 | 306 | 0.9 | 0.9 | 0.00 | 0.00 | 0.00 | 85 | 1019.9 |
| 20260505101739 | 36 | 263 | 0.0 | 0.0 | 0.00 | 0.00 | 0.00 | 83 | 1019.9 |
| 20260505101235 | 36 | 264 | 0.0 | 0.0 | 0.00 | 0.00 | 0.00 | 84 | 1019.9 |
| 20260505100732 | 36 | 264 | 0.0 | 0.0 | 0.00 | 0.00 | 0.00 | 84 | 1019.8 |
| 20260505100229 | 36 | 264 | 0.0 | 0.0 | 0.00 | 0.00 | 0.00 | 84 | 1019.9 |
| 20260505095724 | 36 | 264 | 0.0 | 0.0 | 0.00 | 0.00 | 0.00 | 83 | 1020.0 |
| 20260505095222 | 36 | 264 | 0.0 | 0.0 | 0.00 | 0.00 | 0.00 | 82 | 1020.3 |
| 20260505094717 | 37 | 264 | 0.0 | 0.0 | 0.00 | 0.00 | 0.00 | 81 | 1020.3 |
| 20260505094214 | 37 | 264 | 0.0 | 0.9 | 0.00 | 0.00 | 0.00 | 81 | 1020.6 |
| 20260505093710 | 37 | 264 | 0.0 | 0.9 | 0.00 | 0.00 | 0.00 | 80 | 1020.3 |
| 20260505093208 | 37 | 264 | 0.0 | 0.9 | 0.00 | 0.00 | 0.00 | 80 | 1020.3 |
| 20260505092704 | 37 | 277 | 0.9 | 0.9 | 0.00 | 0.00 | 0.00 | 80 | 1020.4 |
| 20260505092203 | 37 | 282 | 0.0 | 0.0 | 0.00 | 0.00 | 0.00 | 81 | 1020.3 |
| 20260505091700 | 37 | 282 | 0.0 | 0.0 | 0.00 | 0.00 | 0.00 | 81 | 1020.6 |
| 20260505091158 | 37 | 289 | 0.0 | 0.0 | 0.00 | 0.00 | 0.00 | 81 | 1020.9 |
| 20260505090655 | 37 | 288 | 0.0 | 0.0 | 0.00 | 0.00 | 0.00 | 80 | 1020.6 |
| 20260505090154 | 37 | 304 | 0.0 | 0.0 | 0.00 | 0.00 | 0.00 | 80 | 1020.8 |
| 20260505085650 | 38 | 314 | 0.0 | 0.0 | 0.00 | 0.00 | 0.00 | 79 | 1020.8 |
| 20260505085149 | 38 | 51 | 0.0 | 0.0 | 0.00 | 0.00 | 0.00 | 79 | 1020.7 |
| 20260505084646 | 38 | 51 | 0.0 | 0.0 | 0.00 | 0.00 | 0.00 | 79 | 1020.9 |
| 20260505084145 | 38 | 51 | 0.0 | 0.0 | 0.00 | 0.00 | 0.00 | 79 | 1020.8 |
| 20260505083642 | 38 | 0 | 0.9 | 1.7 | 0.00 | 0.00 | 0.00 | 79 | 1020.9 |
| 20260505083138 | 38 | 251 | 0.0 | 0.9 | 0.00 | 0.00 | 0.00 | 78 | 1021.1 |
| 20260505082634 | 38 | 263 | 1.7 | 1.7 | 0.00 | 0.00 | 0.00 | 79 | 1021.5 |
| 20260505082131 | 39 | 300 | 0.0 | 0.0 | 0.00 | 0.00 | 0.00 | 78 | 1021.1 |
| 20260505081627 | 39 | 315 | 0.0 | 0.0 | 0.00 | 0.00 | 0.00 | 77 | 1021.1 |
| 20260505081125 | 39 | 326 | 1.7 | 2.6 | 0.00 | 0.00 | 0.00 | 77 | 1020.8 |
| 20260505080621 | 39 | 302 | 0.0 | 0.0 | 0.00 | 0.00 | 0.00 | 77 | 1021.2 |
| 20260505080117 | 39 | 32 | 0.0 | 0.9 | 0.00 | 0.00 | 0.00 | 77 | 1021.2 |
| 20260505075614 | 39 | 326 | 0.9 | 0.9 | 0.00 | 0.00 | 0.00 | 77 | 1021.1 |
| 20260505075110 | 39 | 251 | 0.9 | 1.7 | 0.00 | 0.00 | 0.00 | 77 | 1021.2 |
| 20260505074607 | 39 | 281 | 0.0 | 0.0 | 0.00 | 0.00 | 0.00 | 76 | 1021.3 |
| 20260505074104 | 39 | 299 | 0.0 | 0.0 | 0.00 | 0.00 | 0.00 | 75 | 1021.3 |
| 20260505073602 | 39 | 250 | 0.9 | 0.9 | 0.00 | 0.00 | 0.00 | 74 | 1021.5 |
| 20260505073100 | 39 | 8 | 0.9 | 0.9 | 0.00 | 0.00 | 0.00 | 74 | 1021.7 |
| 20260505072555 | 39 | 344 | 0.9 | 0.9 | 0.00 | 0.00 | 0.00 | 73 | 1021.1 |
| 20260505072052 | 40 | 323 | 0.9 | 0.9 | 0.00 | 0.00 | 0.00 | 72 | 1021.2 |
| 20260505071548 | 40 | 342 | 0.0 | 0.9 | 0.00 | 0.00 | 0.00 | 72 | 1021.2 |
| 20260505071046 | 40 | 49 | 0.9 | 1.7 | 0.00 | 0.00 | 0.00 | 72 | 1021.1 |
| 20260505070543 | 40 | 19 | 0.9 | 0.9 | 0.00 | 0.00 | 0.00 | 72 | 1021.1 |
| 20260505070039 | 40 | 14 | 1.7 | 2.6 | 0.00 | 0.00 | 0.00 | 72 | 1021.1 |
| 20260505065535 | 40 | 14 | 1.7 | 2.6 | 0.00 | 0.00 | 0.00 | 72 | 1021.1 |
| 20260505065032 | 40 | 348 | 1.7 | 2.6 | 0.00 | 0.00 | 0.00 | 72 | 1020.9 |
| 20260505064528 | 40 | 69 | 3.5 | 7.0 | 0.00 | 0.00 | 0.00 | 72 | 1020.9 |
| 20260505064027 | 40 | 65 | 1.7 | 3.5 | 0.00 | 0.00 | 0.00 | 71 | 1020.9 |
| 20260505063524 | 40 | 32 | 0.9 | 1.7 | 0.00 | 0.00 | 0.00 | 70 | 1021.2 |
| 20260505063020 | 40 | 56 | 3.5 | 6.1 | 0.00 | 0.00 | 0.00 | 69 | 1020.8 |
| 20260505062517 | 41 | 65 | 1.7 | 3.5 | 0.00 | 0.00 | 0.00 | 66 | 1020.9 |
| 20260505062014 | 42 | 50 | 1.7 | 2.6 | 0.00 | 0.00 | 0.00 | 60 | 1020.9 |
| 20260505061512 | 42 | 314 | 0.9 | 0.9 | 0.00 | 0.00 | 0.00 | 58 | 1020.7 |
| 20260505061009 | 42 | 302 | 0.0 | 0.0 | 0.00 | 0.00 | 0.00 | 57 | 1020.9 |
| 20260505060506 | 43 | 351 | 0.9 | 1.7 | 0.00 | 0.00 | 0.00 | 56 | 1021.1 |
| 20260505060002 | 44 | 29 | 0.9 | 1.7 | 0.00 | 0.00 | 0.00 | 49 | 1020.8 |
| 20260505055458 | 45 | 264 | 0.0 | 0.0 | 0.00 | 0.00 | 0.00 | 41 | 1020.8 |
| 20260505054955 | 47 | 141 | 1.7 | 1.7 | 0.00 | 0.00 | 0.00 | 39 | 1020.8 |
| 20260505054453 | 48 | 261 | 0.9 | 0.9 | 0.00 | 0.00 | 0.00 | 30 | 1020.6 |
| 20260505053950 | 48 | 329 | 0.9 | 0.9 | 0.00 | 0.00 | 0.00 | 30 | 1020.6 |
| 20260505053447 | 49 | 303 | 0.9 | 0.9 | 0.00 | 0.00 | 0.00 | 30 | 1020.8 |
| 20260505052944 | 49 | 262 | 1.7 | 1.7 | 0.00 | 0.00 | 0.00 | 30 | 1020.6 |
| 20260505052441 | 49 | 321 | 1.7 | 2.6 | 0.00 | 0.00 | 0.00 | 29 | 1020.8 |
| 20260505051938 | 49 | 293 | 2.6 | 2.6 | 0.00 | 0.00 | 0.00 | 29 | 1020.9 |
| 20260505051435 | 48 | 291 | 0.9 | 1.7 | 0.00 | 0.00 | 0.00 | 30 | 1021.1 |
| 20260505050933 | 48 | 284 | 0.0 | 0.0 | 0.00 | 0.00 | 0.00 | 30 | 1021.2 |
| 20260505050431 | 48 | 271 | 0.0 | 0.9 | 0.00 | 0.00 | 0.00 | 30 | 1021.2 |
| 20260505041359 | 51 | 302 | 2.6 | 5.2 | 0.00 | 0.00 | 0.00 | 26 | 1021.2 |
| 20260505040856 | 50 | 41 | 3.5 | 5.2 | 0.00 | 0.00 | 0.00 | 27 | 1021.1 |
| 20260505040354 | 50 | 258 | 0.9 | 0.9 | 0.00 | 0.00 | 0.00 | 27 | 1020.9 |
| 20260505035850 | 50 | 316 | 1.7 | 2.6 | 0.00 | 0.00 | 0.00 | 27 | 1020.8 |
| 20260505035345 | 50 | 3 | 2.6 | 3.5 | 0.00 | 0.00 | 0.00 | 27 | 1020.8 |
| 20260505034843 | 50 | 23 | 2.6 | 3.5 | 0.00 | 0.00 | 0.00 | 28 | 1020.6 |
| 20260505034340 | 50 | 355 | 4.3 | 6.1 | 0.00 | 0.00 | 0.00 | 28 | 1020.2 |
| 20260505033837 | 50 | 300 | 2.6 | 3.5 | 0.00 | 0.00 | 0.00 | 27 | 1020.3 |
| 20260505033334 | 50 | 320 | 2.6 | 2.6 | 0.00 | 0.00 | 0.00 | 27 | 1020.4 |
| 20260505032832 | 50 | 296 | 2.6 | 3.5 | 0.00 | 0.00 | 0.00 | 27 | 1020.4 |
| 20260505032328 | 49 | 330 | 2.6 | 2.6 | 0.00 | 0.00 | 0.00 | 27 | 1020.7 |
| 20260505031825 | 49 | 313 | 0.9 | 0.9 | 0.00 | 0.00 | 0.00 | 26 | 1020.8 |
| 20260505031321 | 50 | 348 | 1.7 | 2.6 | 0.00 | 0.00 | 0.00 | 26 | 1020.8 |
| 20260505030819 | 50 | 356 | 2.6 | 3.5 | 0.00 | 0.00 | 0.00 | 25 | 1020.7 |
| 20260505030315 | 50 | 2 | 2.6 | 3.5 | 0.00 | 0.00 | 0.00 | 25 | 1020.4 |
| 20260505025810 | 50 | 336 | 1.7 | 2.6 | 0.00 | 0.00 | 0.00 | 25 | 1020.2 |
| 20260505025308 | 50 | 339 | 0.9 | 1.7 | 0.00 | 0.00 | 0.00 | 25 | 1020.2 |
| 20260505024807 | 50 | 303 | 0.9 | 1.7 | 0.00 | 0.00 | 0.00 | 25 | 1020.0 |
| 20260505024304 | 51 | 296 | 0.9 | 1.7 | 0.00 | 0.00 | 0.00 | 24 | 1020.0 |
| 20260505023801 | 51 | 288 | 7.0 | 8.7 | 0.00 | 0.00 | 0.00 | 24 | 1020.3 |
| 20260505023258 | 51 | 299 | 0.9 | 1.7 | 0.00 | 0.00 | 0.00 | 24 | 1020.0 |
| 20260505022755 | 51 | 319 | 1.7 | 1.7 | 0.00 | 0.00 | 0.00 | 23 | 1019.6 |
| 20260505022252 | 51 | 33 | 3.5 | 5.2 | 0.00 | 0.00 | 0.00 | 23 | 1019.8 |
| 20260505021749 | 51 | 305 | 0.9 | 0.9 | 0.00 | 0.00 | 0.00 | 23 | 1019.2 |
| 20260505021246 | 51 | 333 | 0.9 | 1.7 | 0.00 | 0.00 | 0.00 | 23 | 1019.2 |
| 20260505020742 | 51 | 268 | 4.3 | 7.8 | 0.00 | 0.00 | 0.00 | 22 | 1019.2 |
| 20260505020237 | 51 | 321 | 7.8 | 11.3 | 0.00 | 0.00 | 0.00 | 22 | 1019.2 |
| 20260505015734 | 52 | 306 | 4.3 | 6.1 | 0.00 | 0.00 | 0.00 | 22 | 1019.1 |
| 20260505015231 | 52 | 295 | 1.7 | 2.6 | 0.00 | 0.00 | 0.00 | 23 | 1019.1 |
| 20260505014728 | 52 | 302 | 2.6 | 3.5 | 0.00 | 0.00 | 0.00 | 22 | 1019.2 |
| 20260505014226 | 52 | 328 | 1.7 | 2.6 | 0.00 | 0.00 | 0.00 | 23 | 1019.1 |
| 20260505013722 | 52 | 308 | 2.6 | 3.5 | 0.00 | 0.00 | 0.00 | 22 | 1018.9 |
| 20260505013219 | 52 | 332 | 2.6 | 5.2 | 0.00 | 0.00 | 0.00 | 22 | 1018.9 |
| 20260505012718 | 52 | 305 | 1.7 | 2.6 | 0.00 | 0.00 | 0.00 | 22 | 1018.6 |
| 20260505012214 | 53 | 293 | 2.6 | 2.6 | 0.00 | 0.00 | 0.00 | 22 | 1018.7 |
| 20260505011710 | 53 | 296 | 1.7 | 3.5 | 0.00 | 0.00 | 0.00 | 22 | 1018.7 |
| 20260505011208 | 53 | 280 | 1.7 | 1.7 | 0.00 | 0.00 | 0.00 | 22 | 1018.3 |
| 20260505010703 | 53 | 294 | 0.9 | 1.7 | 0.00 | 0.00 | 0.00 | 22 | 1018.6 |
| 20260505010200 | 53 | 305 | 1.7 | 2.6 | 0.00 | 0.00 | 0.00 | 22 | 1018.9 |
| 20260505005656 | 54 | 293 | 7.0 | 9.6 | 0.00 | 0.00 | 0.00 | 21 | 1018.9 |